Back to catalog

FENGYUN 1C DEB

AliveSSO
NORAD 30175·DEBRIS·🇨🇳 China

Launched May 10, 1999 from Taiyuan Satellite Launch Center

Loading…

Next Passes (next 24 hours)

TLE

FreshSource: Space-Track

Epoch: Sep 14, 2026, 03:45 UTC

1 30175U 99025UG  26257.15626424  .00000326  00000-0  30693-3 0  9998
2 30175  99.3468 317.2199 0145500 199.7149 187.0359 13.84089407991505

Track FENGYUN 1C DEB in real time with AllMySat

Download on the App Store